Location: Baix
(44.7118°N, 4.7648°E)
Time: 06:46:04
(UTC+00:00)

Vanguard 1 - Pass Details

Date: 03 December 2020
Orbit: 648 x 3834 km, 34.3° (Epoch: 21 January)

Event Time Altitude Azimuth Distance (km) Brightness Sun altitude
Rises 07:39:01 0° 265° (W) 3,946 12.7 4.8°
Reaches altitude 10° 07:41:31 10° 256° (WSW) 3,275 12.4 5.1°
Maximum altitude 07:49:04 36° 193° (SSW) 2,642 12.7 6.2°
Drops below altitude 10° 08:01:52 10° 134° (SE) 5,545 17.6 7.9°
Sets 08:07:41 0° 128° (SE) 7,056 16.8 8.6°
